Weather History for Claremore, OK

Change the Weather History Date:

Tuesday, February 12, 2013

  Actual Average (KTUL) Record (KTUL)
Temperature  
Mean Temperature 36 °F 41 °F  
Max Temperature 41 °F 52 °F 86 °F (1962)
Min Temperature 32 °F 30 °F 0 °F (1905)
Degree Days  
Heating Degree Days 28 24  
Month to date heating degree days 299  
Since 1 July heating degree days 2572  
Moisture  
Dew Point 31 °F    
Average Humidity 82    
Maximum Humidity 100    
Minimum Humidity 65    
Precipitation  
Precipitation 0.22 in 0.06 in 1.78 in (1978)
Month to date precipitation 0.70  
Year to date precipitation 2.36  
Sea Level Pressure  
Sea Level Pressure 30.07 in    
Wind  
Wind Speed 7 mph (NNE)    
Max Wind Speed 15 mph    
Max Gust Speed 20 mph    
Visibility 8 miles    
Events Rain    
T = Trace of Precipitation, MM = Missing Value Source: NWS Daily Summary

Daily Weather History Graph

Daily Weather History Graph

Search for Another Location

Airport:

Trip Planner

Search our weather history database for the weather conditions in past years. The results will help you decide how hot, cold, wet, or windy it might be!

Date:

Astronomy

Feb. 12, 2013 Rise Set
Actual Time 7:12 AM CST 6:00 PM CST
Civil Twilight 6:46 AM CST 6:26 PM CST
Nautical Twilight 6:15 AM CST 6:56 PM CST
Astronomical Twilight 5:45 AM CST 7:26 PM CST
Moon 8:16 AM CST (2/12) 8:54 PM CST (2/12)
Length of Visible Light 11h 40m
Length of Day
10h 47m
Waxing Crescent, 7% of the Moon is Illuminated
Feb 12
Waxing Crescent
Feb 17
First Quarter
Feb 25
Full
Mar 4
Last Quarter
Mar 11
New

Hourly Weather History & Observations

Time (CST) Temp. Windchill Dew Point Humidity Pressure Visibility Wind Dir Wind Speed Gust Speed Precip Events Conditions
12:15 AM 32.0 °F - 26.6 °F 80% 30.16 in 10.0 mi Calm Calm - N/A   Clear
12:35 AM 33.8 °F 30.8 °F 26.6 °F 75% 30.16 in 10.0 mi NE 3.5 mph - N/A   Clear
12:55 AM 32.0 °F 27.5 °F 26.6 °F 80% 30.16 in 10.0 mi NE 4.6 mph - N/A   Clear
1:15 AM 32.0 °F 27.5 °F 26.6 °F 80% 30.15 in 10.0 mi NE 4.6 mph - N/A   Clear
1:35 AM 32.0 °F 27.5 °F 26.6 °F 80% 30.14 in 10.0 mi NE 4.6 mph - N/A   Clear
1:55 AM 33.8 °F 28.6 °F 28.4 °F 81% 30.14 in 10.0 mi NE 5.8 mph - N/A   Clear
2:15 AM 33.8 °F 29.6 °F 28.4 °F 81% 30.14 in 10.0 mi NE 4.6 mph - N/A   Clear
2:35 AM 35.6 °F 29.2 °F 30.2 °F 81% 30.12 in 10.0 mi NE 8.1 mph - N/A   Clear
3:15 AM 32.0 °F 24.8 °F 28.4 °F 87% 30.11 in 10.0 mi NE 8.1 mph - N/A   Clear
3:35 AM 32.0 °F 25.6 °F 28.4 °F 87% 30.12 in 10.0 mi NNE 6.9 mph - N/A   Clear
3:55 AM 33.8 °F 26.4 °F 28.4 °F 81% 30.11 in 10.0 mi NE 9.2 mph - N/A   Clear
4:15 AM 32.0 °F 24.8 °F 28.4 °F 87% 30.11 in 10.0 mi NNE 8.1 mph - N/A   Clear
4:35 AM 32.0 °F 24.2 °F 28.4 °F 87% 30.09 in 10.0 mi NE 9.2 mph - N/A   Clear
4:55 AM 35.6 °F 28.6 °F 28.4 °F 75% 30.10 in 10.0 mi NE 9.2 mph - N/A   Clear
5:35 AM 35.6 °F 30.7 °F 28.4 °F 75% 30.12 in 10.0 mi North 5.8 mph - N/A   Clear
5:55 AM 33.8 °F 27.7 °F 28.4 °F 81% 30.13 in 10.0 mi North 6.9 mph - N/A   Clear
6:15 AM 35.6 °F 28.6 °F 28.4 °F 75% 30.12 in 10.0 mi NE 9.2 mph - N/A   Clear
6:35 AM 35.6 °F 29.9 °F 28.4 °F 75% 30.12 in 10.0 mi NE 6.9 mph - N/A   Clear
6:55 AM 35.6 °F 29.2 °F 28.4 °F 75% 30.12 in 10.0 mi NE 8.1 mph - N/A   Clear
7:15 AM 35.6 °F 28.6 °F 28.4 °F 75% 30.12 in 10.0 mi NE 9.2 mph - N/A   Clear
7:35 AM 37.4 °F 30.8 °F 28.4 °F 70% 30.11 in 10.0 mi NE 9.2 mph - N/A   Clear
7:55 AM 35.6 °F 28.0 °F 28.4 °F 75% 30.08 in 10.0 mi NE 10.4 mph - N/A   Clear
8:15 AM 37.4 °F 29.8 °F 28.4 °F 70% 30.07 in 10.0 mi NE 11.5 mph - N/A   Clear
8:35 AM 37.4 °F 29.8 °F 28.4 °F 70% 30.08 in 10.0 mi NE 11.5 mph - N/A   Clear
8:55 AM 37.4 °F 29.8 °F 28.4 °F 70% 30.10 in 10.0 mi NE 11.5 mph - N/A   Clear
9:15 AM 37.4 °F 29.8 °F 28.4 °F 70% 30.09 in 10.0 mi NE 11.5 mph - N/A   Clear
9:35 AM 37.4 °F 30.8 °F 28.4 °F 70% 30.08 in 10.0 mi NE 9.2 mph 16.1 mph N/A   Clear
10:15 AM 41.0 °F 34.3 °F 30.2 °F 65% 30.09 in 10.0 mi NE 11.5 mph - N/A   Clear
10:35 AM 41.0 °F 33.1 °F 30.2 °F 65% 30.08 in 10.0 mi NE 15.0 mph 19.6 mph N/A   Clear
10:55 AM 41.0 °F 33.5 °F 30.2 °F 65% 30.10 in 10.0 mi ENE 13.8 mph 18.4 mph N/A   Clear
11:15 AM 41.0 °F 33.1 °F 30.2 °F 65% 30.07 in 10.0 mi NE 15.0 mph 19.6 mph N/A   Clear
11:35 AM 41.0 °F 35.2 °F 30.2 °F 65% 30.08 in 10.0 mi ENE 9.2 mph - N/A   Clear
11:55 AM 41.0 °F 35.2 °F 30.2 °F 65% 30.09 in 10.0 mi ENE 9.2 mph - N/A   Clear
12:15 PM 41.0 °F 35.2 °F 32.0 °F 70% 30.08 in 10.0 mi ENE 9.2 mph - N/A   Clear
12:35 PM 41.0 °F 35.2 °F 32.0 °F 70% 30.07 in 10.0 mi ENE 9.2 mph - N/A Rain Light Rain
12:55 PM 41.0 °F 35.8 °F 33.8 °F 76% 30.06 in 10.0 mi ENE 8.1 mph - N/A Rain Light Rain
1:15 PM 41.0 °F 39.0 °F 33.8 °F 76% 30.05 in 7.0 mi NE 3.5 mph - 0.01 in Rain Rain
1:35 PM 41.0 °F - 33.8 °F 76% 30.04 in 10.0 mi Calm Calm - 0.02 in Rain Rain
1:55 PM 41.0 °F - 35.6 °F 81% 30.03 in 10.0 mi Calm Calm - 0.03 in Rain Light Rain
2:15 PM 41.0 °F 39.0 °F 35.6 °F 81% 30.01 in 10.0 mi NNE 3.5 mph - N/A Rain Light Rain
2:35 PM 41.0 °F 37.1 °F 37.4 °F 87% 30.00 in 10.0 mi North 5.8 mph - 0.01 in   Drizzle
2:55 PM 41.0 °F 38.0 °F 35.6 °F 81% 29.99 in 10.0 mi NNE 4.6 mph - 0.01 in Rain Light Rain
3:15 PM 41.0 °F 39.0 °F 37.4 °F 87% 29.99 in 10.0 mi NNE 3.5 mph - N/A Rain Light Rain
3:35 PM 41.0 °F 38.0 °F 35.6 °F 81% 29.99 in 10.0 mi NNE 4.6 mph - 0.01 in   Drizzle
3:55 PM 41.0 °F 39.0 °F 35.6 °F 81% 29.99 in 10.0 mi North 3.5 mph - 0.01 in Rain Light Rain
4:15 PM 39.2 °F 35.9 °F 35.6 °F 87% 29.98 in 7.0 mi North 4.6 mph - 0.02 in Rain Light Rain
4:35 PM 39.2 °F 35.9 °F 35.6 °F 87% 29.98 in 7.0 mi North 4.6 mph - 0.03 in Rain Rain
5:15 PM 37.4 °F 29.8 °F 35.6 °F 93% 29.99 in 7.0 mi North 11.5 mph - 0.01 in Rain Light Rain
5:35 PM 35.6 °F 28.6 °F 33.8 °F 93% 30.01 in 5.0 mi North 9.2 mph - 0.02 in Rain Rain
5:55 PM 35.6 °F 29.2 °F 33.8 °F 93% 30.01 in 3.0 mi North 8.1 mph - 0.06 in Rain Rain
6:15 PM 33.8 °F 25.8 °F 32.0 °F 93% 30.01 in 2.5 mi North 10.4 mph - 0.01 in Rain Rain
6:35 PM 33.8 °F 25.8 °F 32.0 °F 93% 30.02 in 4.0 mi North 10.4 mph - 0.01 in Rain Rain
6:55 PM 33.8 °F 26.4 °F 32.0 °F 93% 30.03 in 2.5 mi North 9.2 mph - 0.02 in Rain Light Rain
7:15 PM 32.0 °F 23.6 °F 32.0 °F 100% 30.03 in 3.0 mi NNE 10.4 mph - N/A Rain Light Rain
7:35 PM 33.8 °F 25.8 °F 32.0 °F 93% 30.03 in 4.0 mi North 10.4 mph 16.1 mph N/A Rain Light Rain
8:15 PM 33.8 °F 27.0 °F 32.0 °F 93% 30.04 in 3.0 mi North 8.1 mph - 0.01 in Rain Rain
8:35 PM 33.8 °F 27.7 °F 32.0 °F 93% 30.04 in 4.0 mi North 6.9 mph - 0.02 in Rain Light Rain
9:15 PM 32.0 °F 24.2 °F 32.0 °F 100% 30.05 in 3.0 mi North 9.2 mph - 0.01 in Rain Rain
9:35 PM 32.0 °F 24.8 °F 32.0 °F 100% 30.05 in 3.0 mi NNE 8.1 mph - 0.03 in Rain Light Rain
9:55 PM 33.8 °F 27.0 °F 32.0 °F 93% 30.05 in 5.0 mi NNE 8.1 mph - 0.03 in Rain Light Rain
10:15 PM 33.8 °F 27.0 °F 32.0 °F 93% 30.05 in 5.0 mi NNE 8.1 mph - N/A   Drizzle
10:35 PM 33.8 °F 26.4 °F 32.0 °F 93% 30.04 in 7.0 mi NNE 9.2 mph - 0.01 in   Drizzle
10:55 PM 33.8 °F 27.0 °F 32.0 °F 93% 30.04 in 7.0 mi NNE 8.1 mph - 0.01 in   Light Drizzle
11:15 PM 33.8 °F 27.7 °F 32.0 °F 93% 30.04 in 10.0 mi NNE 6.9 mph - N/A   Light Drizzle
11:35 PM 33.8 °F 29.6 °F 32.0 °F 93% 30.04 in 7.0 mi NNE 4.6 mph - N/A   Light Drizzle
11:55 PM 33.8 °F 28.6 °F 32.0 °F 93% 30.04 in 7.0 mi North 5.8 mph - N/A   Drizzle